Regional Weather Roundup
Issued by NWS Pendleton, OR

Home | Current Version | Previous Version | Text Only | Print | Product List | Glossary On
Versions: 1 2 3 4 5 6 7 8 9 10 11 12 13 14 15 16 17 18 19 20 21 22 23 24 25 26 27 28 29 30 31 32 33 34 35 36 37 38 39 40 41 42 43 44 45 46 47 48 49 50
000
ASUS46 KPDT 170010
RWRPDT
PENDLETON REGIONAL WEATHER ROUNDUP
NATIONAL WEATHER SERVICE PENDLETON OREGON
500 PM PDT TUE SEP 16 2014

NOTE: FAIR INDICATES FEW OR NO CLOUDS BELOW 12,000 FEET WITH NO
SIGNIFICANT WEATHER AND/OR OBSTRUCTIONS TO VISIBILITY.

# INDICATES UNOFFICIAL STATION AND DATA

WAZ520-170110-
EAST SLOPES OF WASHINGTON CASCADES

CITY            SKY/WX      TMP DP  RH  WIND    PRES   REMARKS
#BUMPING DAM    N/A         73  N/A N/A S5      N/A
#CLE ELUM HS    N/A         79  50  36  W5      29.79
#CLE ELUM 2NW   N/A         74  48  40  SW5     N/A
#CLE ELUM LAKE  N/A         76  51  42  S3      29.70
#CLIFFDEL 2NW   N/A         82  34  18  CALM    N/A
#EASTON DOT     N/A         71  42  35  N2      N/A
#GLENWOOD       N/A         80  51  36  SW3     29.78
#MANASTASH CYN  N/A         78  48  35  CALM    29.85S
#NELSON         N/A         76  55  48  CALM    29.77
#NELSON 3SW     N/A         74  52  46  CALM    29.93
#NILE           N/A         83  35  18  CALM    29.03
#PEOH POINT     N/A         75  40  28  W2      N/A
#RONALD 2NW     N/A         77  49  37  W1      29.76S
#SNOWDEN        N/A         77  34  21  NW3     N/A
#SOUTH BLEWITT  N/A         79  39  24  CALM    N/A
#TEANAWAY 4NE   N/A         82  42  24  CALM    N/A
#TROUT LAKE 1NE N/A         80  49  34  W7      29.79
$$

WAZ521-170110-
SIMCOE HIGHLANDS

CITY            SKY/WX      TMP DP  RH  WIND    PRES   REMARKS
#BICKLETON HS   N/A         80  28  15  W2      29.94
#SATUS PASS DOT N/A         81  35  19  CALM    N/A
#CENTERVILLE 4W N/A         79  46  31  NW16    29.61R
#CENTERVILLE 1SWN/A         81  48  32  W14     29.75
#GOLDENDALE     N/A         84  40  21  NW10    N/A
#GOLDENDALE 1NE N/A         83  36  19  SW7     N/A
#GOLDENDALE 1S  N/A         83  48  30  W7      29.81
#GOODNOE HILLS  N/A         87  44  22  W21     29.71F
#LYLE 6NE       N/A         77  52  42  SW7     29.74
$$

WAZ026-170110-
KITTITAS VALLEY

CITY            SKY/WX      TMP DP  RH  WIND    PRES   REMARKS
ELLENSBURG AP   MOCLDY      88  41  19  NE5     29.80
6HR MIN TEMP:   72; 6HR MAX TEMP:   88;

#ELLENSBURG CWU N/A         84  39  20  E1      29.69
#ELLENSBURG 3NE N/A         78  62  58  CALM    29.81
#ELLENSBURG     N/A         89  41  19  CALM    N/A
#KITTITAS 3S    N/A         83  50  32  CALM    29.72
#RYEGRASS DOT   N/A         80  42  26  E6      N/A
#THORP 6N       N/A         80  35  20  E5      29.75
$$

WAZ027-170110-
YAKIMA VALLEY

CITY            SKY/WX      TMP DP  RH  WIND    PRES   REMARKS
YAKIMA AIRPORT  MOCLDY      86  43  22  S6      29.78
6HR MIN TEMP:   77; 6HR MAX TEMP:   88;

#COWICHE 1N     N/A         81  41  24  CALM    29.98S
#DONALD 2NE     N/A         95  29  10  CALM    30.10S HX 90
#GRANDVIEW      N/A         82  41  23  CALM    29.74F
#MABTON         N/A         84  47  28  CALM    29.75
#MOXEE 2E       N/A         82  15   8  S7      29.68S
#NACHES 2SW     N/A         85  50  30  CALM    29.85
#TERRACE HTS    N/A         83  46  27  CALM    29.71
#TOPPENISH      N/A         85  45  25  CALM    29.66
#WAPATO 4NE     N/A         95  29  10  CALM    30.10S HX 90
#WEST VALLEY    N/A         85  38  19  S1      29.72
#W YAKIMA       N/A         85  40  20  S1      29.72F
#WHITE SWAN 5E  N/A         85  46  26  N3      29.74
#WILEY CITY 3W  N/A         82  33  17  CALM    29.79
$$

WAZ028-170110-
LOWER COLUMBIA BASIN...WASHINGTON

CITY            SKY/WX      TMP DP  RH  WIND    PRES   REMARKS
PASCO           MOCLDY      86  47  26  E5      29.75
6HR MIN TEMP:   70; 6HR MAX TEMP:   87;

PROSSER AWOS    N/A         86  41  21  NW3     29.78
RICHLAND AWOS   MOCLDY      86  39  19  CALM    29.75
#BASIN CITY 5SW N/A         75  60  60  CALM    29.76
#BENTON CITY    N/A         83  46  27  CALM    29.64
#CONNELL 5N     N/A         81  43  26  W2      29.74
#CONNELL 5NW    N/A         80  46  30  CALM    29.70
#ELTOPIA        N/A         86  51  30  CALM    29.69F
#ELTOPIA 6NW    N/A         81  51  35  W1      28.75
#KENNEWICK 3S   N/A         82  51  34  CALM    29.74
#PASCO-BROADMOORN/A         89  45  22  E1      29.61
#PATERSON       N/A         85  42  22  S1      29.71
#PROSSER DOT    N/A         87  34  15  CALM    N/A
#PROSSER        N/A         86  35  16  N2      29.73
#SAGEMOOR 2W    N/A         82  65  56  CALM    29.60
#TOUCHET 2S     N/A         85  45  25  CALM    29.72
#WEST PASCO     N/A         85  50  30  CALM    29.73
$$

WAZ029-170110-
FOOTHILLS OF THE BLUES...WASHINGTON

CITY            SKY/WX      TMP DP  RH  WIND    PRES   REMARKS
WALLA WALLA AP  PTCLDY      87  34  15  SW3     29.79
6HR MIN TEMP:   75; 6HR MAX TEMP:   88;

#DAYTON SCHOOL  N/A         87  37  17  SW2     29.80
#LOWDEN 2SE     N/A         86  44  23  CALM    29.71
#PLEASANT VIEW 1N/A         84  37  19  W1      29.77
#PRESCOTT       N/A         88  43  21  W1      29.72
#SUDBURY        N/A         88  N/A N/A CALM    N/A
#WHITMAN COLLEGEN/A         86  39  19  SW2     29.77
#WALLA WALLA 5E N/A         79  42  27  W7      N/A
#WALLA WALLA U  N/A         88  42  20  CALM    29.72
#WHITMAN MISSIONN/A         90  45  21  CALM    29.74  HX 86
$$

WAZ030-170110-
BLUE MOUNTAINS...WASHINGTON

CITY            SKY/WX      TMP DP  RH  WIND    PRES   REMARKS
$$

ORZ009-041-WAZ024-170110-
COLUMBIA RIVER GORGE

CITY            SKY/WX      TMP DP  RH  WIND    PRES   REMARKS
HOOD RIVER AP   PTCLDY      77  46  33  W7      29.82
THE DALLES AP   SUNNY       83  47  28  W15     29.76  HAZE
6HR MIN TEMP:   70; 6HR MAX TEMP:   85;

#ARLINGTON AIRPON/A         88  42  20  W12     N/A
#ARLINGTON HS   N/A         90  38  16  NW1     29.60  HX 86
#MARYHILL       N/A         87  42  21  SE3     N/A
#MARYHILL 2W    N/A         83  48  30  NW10    N/A
#MOSIER 1S      N/A         76  37  24  CALM    29.83S
#MURDOCK        N/A         81  54  39  NW15G26 29.76
#RUFUS DOT      N/A         87  54  32  SW2     N/A

$$

ORZ510-170110-
NORTH CENTRAL OREGON

CITY            SKY/WX      TMP DP  RH  WIND    PRES   REMARKS
#COW CYN RST AREN/A         82  34  18  N12     N/A
#DUFUR 9E       N/A         75  41  29  NW12    29.80
#GRASS VALLEY   N/A         76  41  28  NW6     N/A
#GRASS VALLEY 1SN/A         82  44  26  N7      29.77
#KENT DOT       N/A         82  38  21  NW9     N/A
#MAUPIN SCHOOL  N/A         87  44  22  N7      28.64
#MORO SCHOOL    N/A         80  45  29  NW13    29.84
#SHANIKO 5WSW   N/A         80  37  21  N8      N/A
#SHANIKO 4NW    N/A         79  31  17  N9      29.92
#TYGH VALLEY 2NEN/A         85  45  25  N10     29.72
#WAPANITIA AIRPON/A         84  41  22  NE8     29.75
#WASCO DOT      N/A         86  49  28  W8      N/A
#WASCO 5NE      N/A         86  45  24  N9      29.75
$$

ORZ511-170110-
CENTRAL OREGON

CITY            SKY/WX      TMP DP  RH  WIND    PRES   REMARKS
BEND AIRPORT    SUNNY       84  30  14  N13     29.88
MADRAS AIRPORT  SUNNY       86  32  14  N8      29.84
#BEND 6E        N/A         82  30  15  CALM    29.64R
#BEND 1SW       N/A         81  34  18  N1      N/A
#BEND-AWBREY    N/A         85  35  17  S9      29.70S
#BEND-KIM LN    N/A         85  32  15  W1      29.85
#CROOKED RVR RANN/A         86  35  16  N6      29.70S
#CULVER         N/A         87  35  16  NW3     29.80
#LAKE BILLY CHINN/A         85   7   5  SW8     29.84S
#POWELL BUTTE   N/A         84  39  20  NW6     29.52S
#PRINEVILLE 3N  N/A         84  41  22  W2      29.66S
#WARM SPRINGS   N/A         91  43  19  S2      29.75  HX 87


ORZ509-170110-
EAST SLOPES OF OREGON CASCADES

CITY            SKY/WX      TMP DP  RH  WIND    PRES   REMARKS
#BLUE BOX PASS  N/A         67  12  12  NW5     N/A
#BLACK BUTTE RNCN/A         77  40  26  CALM    29.78S
#CAMP SHERMAN   N/A         82  34  18  E1      29.78
#LA PINE DOT    N/A         83  32  16  W10     N/A
#LA PINE 4NW    N/A         81  37  21  W1      29.77
#LAVA BUTTE DOT N/A         82  40  22  CALM    N/A
#SISTERS AIRPOR N/A         82  46  28  N8      29.87
#SISTERS ODOT   N/A         81  N/A N/A SW7     N/A
#SISTERS 3N     N/A         80  34  19  NW3     N/A
#SUNRIVER       N/A         80  37  21  SW3     29.64S
#SUNRIVER AP    N/A         82  33  17  SW5     29.72
#TUMALO 3W      N/A         81  33  18  NW13    29.60
#WANOGA BUTTE D N/A         72  32  23  NW7     N/A

$$

ORZ044-170110-
LOWER COLUMBIA BASIN...OREGON

CITY            SKY/WX      TMP DP  RH  WIND    PRES   REMARKS
HERMISTON       PTCLDY      87  39  18  NW3     29.74
6HR MIN TEMP:   72; 6HR MAX TEMP:   88;

#BOARDMAN SCHOOLN/A         83  40  22  CALM    29.72
#BOARDMAN 3W    N/A         84  53  34  SE1     29.44S
#BOARDMAN 8SW   N/A         86  42  21  NE3     29.72S
#ECHO 8SW       N/A         86  44  23  N2      29.74
#IONE SCHOOL    N/A         87  37  17  NW7     29.76
#IRRIGON 4NW    N/A         88  39  18  S2      N/A
#UMATILLA SCHOOLN/A         92  55  29  CALM    29.80  HX 90
#UMATILLA       N/A         89  43  20  CALM    29.71
$$

ORZ507-170110-
NORTHERN FOOTHILLS OF THE BLUES

CITY            SKY/WX      TMP DP  RH  WIND    PRES   REMARKS
PENDLETON AIRPT PTCLDY      85  34  16  VRB5    29.79
6HR MIN TEMP:   76; 6HR MAX TEMP:   87;

#ADAMS 3WNW     N/A         87  35  16  CALM    29.73
#ATHENA         N/A         85  38  19  N2      29.77
#HELIX SCHOOL   N/A         86  36  17  N1      29.74
#HELIX 3N       N/A         84  33  16  W2      29.79
#HOLDMAN 5SE    N/A         84  39  20  W1      29.80
#HOLDMAN 6E     N/A         84  34  17  NE5     29.56
#M-FREEWATER 5SEN/A         85  51  31  CALM    29.79
#PENDLETON DNTN N/A         86  41  21  NW2     29.79
#PDT AQUATIC CTRN/A         88  41  19  W3      29.79
#PDT SUNRIDGE   N/A         87  38  18  CALM    29.79
#PENDLETON 7NW  N/A         82  47  29  CALM    31.14
#PILOT ROCK     N/A         83  38  20  N1      29.83
#TUTUILLA       N/A         85  37  18  N5      29.76
#UMAPINE 2E     N/A         85  56  37  CALM    29.73
#WESTON SCHOOL  N/A         83  32  16  E2      29.77

$$

ORZ508-170110-
SOUTHERN FOOTHILLS OF THE BLUES

CITY            SKY/WX      TMP DP  RH  WIND    PRES   REMARKS
#AJAX           N/A         82  34  18  N9      29.79
#CONDON SCHOOL  N/A         82  38  21  CALM    29.84
#CONDON 5W      N/A         79  33  19  N15     29.86
#FOSSIL SCHOOL  N/A         85  34  16  NW7     29.83
#HEPPNER EOC    N/A         83  39  21  W5      29.70
#HEPPNER 4NE    N/A         80  38  22  NW7     29.74
#LEXINGTON 2SE  N/A         87  41  20  CALM    29.75
#MIKKALO        N/A         84  34  17  N8      29.82
#OLEX 4N        N/A         86  40  20  W2      29.77
#RUGGS 5NE      N/A         82   0   4  N3      30.04
#RUGGS 2SW      N/A         82  37  20  VRB7    29.79

$$

ORZ502-503-170110-
BLUE MOUNTAINS

CITY            SKY/WX      TMP DP  RH  WIND    PRES   REMARKS
#BATTLE MTN DOT N/A         74  48  40  NE5     N/A
#HARDMAN 10S    N/A         79  34  20  N6      30.00
#HEPPNER 15SE   N/A         75  36  24  NW5     29.85
#LADD CYN SMT   N/A         91  44  20  E2      N/A    HX 87
#LADD CREEK ODOTN/A         93  52  25  SW6     N/A    HX 90
#N POWDER DOT   N/A         91  52  27  NE2     N/A    HX 88
#PIKES PEAK     N/A         77  34  21  NW2     27.99
#TOLLGATE       N/A         72  36  27  N2      29.93
#TROY SCHOOL    N/A         91  44  20  N3      29.53  HX 87
#UKIAH          N/A         81  39  22  NW12    29.77
#WESTON 4E      N/A         80  39  23  CALM    29.68
$$

ORZ505-170110-
JOHN DAY BASIN

CITY            SKY/WX      TMP DP  RH  WIND    PRES   REMARKS
JOHN DAY        PTCLDY      91  32  12  SW13    29.87  HX 87
#MONUMENT HS    N/A         94  31  11  W7      29.76  HX 89
#MT. VERNON 5SE N/A         87  35  16  E6      29.84
#WINLOCK        N/A         86  34  16  CALM    29.94
$$

ORZ506-170110-
OCHOCO AND JOHN DAY HIGHLANDS

CITY            SKY/WX      TMP DP  RH  WIND    PRES   REMARKS
#BUCK CREEK DOT N/A         86  39  19  CALM    N/A
#HORSE RIDGE DO N/A         85  22  10  SW7     N/A
#KEYES SMT DOT  N/A         82  27  13  W8      N/A
#PAULINA SCHOOL N/A         88  27  11  SW6     29.88
#PINE MTN OBS   N/A         72  22  15  SW12    N/A
#PRAIRIE CITY   N/A         84  39  20  SE3     29.62
#SENECA 9NW     N/A         85  37  18  SE2     29.70
$$

ORZ049-170110-
GRANDE RONDE VALLEY

CITY            SKY/WX      TMP DP  RH  WIND    PRES   REMARKS
LA GRANDE       SUNNY       91  36  14  NW12    29.80  HX 87
#COVE           N/A         91  43  19  SE1     29.74  HX 87
#COVE SCHOOL    N/A         91  39  16  CALM    29.80  HX 87
#COVE 6NW       N/A         92  41  17  W2      29.71  HX 88
#ELGIN 3N       N/A         87  40  19  W2      29.55S
#ELGIN 1E       N/A         90  42  19  W5      N/A    HX 86
#IMBLER SCHOOL  N/A         85  40  20  NW12    29.78S
#LADD CYN DOT   N/A         89  47  24  NW12    N/A
#LA GRANDE ELEM N/A         85  35  17  W13     29.81R
#UNION 1S       N/A         91  39  16  SE3     29.58  HX 87
$$

ORZ050-170110-
WALLOWA COUNTY

CITY            SKY/WX      TMP DP  RH  WIND    PRES   REMARKS
#ENTERPRISE AP  N/A         85  34  16  SE3     29.85
#ENTERPRISE HS  N/A         86  45  24  SE2     29.88
#IMNAHA SCHOOL  N/A         92  36  14  CALM    29.66  HX 88
#IMNAHA 10S     N/A         91  43  19  SW8     29.83  HX 87
#JOSEPH 3N      N/A         84  48  29  SE5     29.93
#JOSEPH 3W      N/A         80  34  19  CALM    29.80F
#LOSTINE        N/A         87  42  21  CALM    29.50
#MT HOWARD 8000 N/A         65  34  31  SW7     30.22
#PROMISE 1S     N/A         85  44  24  NE5     29.78
#SHEEP RDG 7000 N/A         69  35  28  CALM    29.69
#WALLOWA SCHOOL N/A         91  39  16  W3      30.57  HX 87



$$



USA.gov is the U.S. government's official web portal to all federal, state and local government web resources and services.